Location: *
(17.3280°S, 114.7300°W)
Time: 17:20:16
(UTC+00:00)

Daily predictions for brighter satellites

Satellite Brightness Start Highest point End
(mag) Time Altitude Azimuth Time Altitude Azimuth Time Altitude Azimuth
Meteor 1-21 Rocket 4.1 12:15:33 10° NNW 12:21:01 62° W 12:26:38 10° S
Palapa 6 Rocket 4.0 12:24:43 31° N 12:25:36 35° NNE 12:29:10 10° E
Mugunghwa Rocket 4.4 12:24:24 42° WSW 12:27:19 82° SSE 12:35:35 10° ENE
Cosmos 1328 3.9 12:23:56 10° N 12:27:55 76° E 12:31:56 10° S
METEOR-M 4.4 12:25:06 10° N 12:30:00 45° WNW 12:30:00 45° WNW
GPS 2-14 Rocket1 3.4 12:34:19 37° NNW 12:34:19 37° NNW 12:37:49 10° NE
Cosmos 1745 Rocket 4.1 12:28:57 10° N 12:35:07 77° E 12:41:17 10° S
Cosmos 1455 3.0 12:33:15 10° S 12:36:58 50° E 12:40:40 10° NNE
Centaur AC-64 3.2 12:33:09 31° W 12:37:05 71° SSW 12:40:15 10° ESE
Cosmos 1400 Rocket 3.7 12:37:33 10° S 12:41:35 51° E 12:45:30 10° NNE
Cosmos 1689 Rocket 4.5 12:39:28 10° SE 12:42:01 25° E 12:44:31 10° NNE
SAR-Lupe-4 3.4 12:39:15 10° SSE 12:42:51 89° WSW 12:46:25 10° NNW
Cosmos 2315 Rocket 4.3 12:40:25 23° SW 12:43:46 41° W 12:49:34 10° NNW
Cosmos 1703 4.0 12:40:01 10° NNW 12:49:04 - S 12:42:38 35° NW
Lacrosse 5 rocket 1.4 12:49:49 35° WSW 12:51:22 60° WNW 12:55:42 10° NNE
CZ-4B R/B 1.6 12:52:29 10° S 12:55:52 47° WSW 12:59:12 10° NNW
SL-08 ROCKET BODY 4.3 12:51:23 10° NNW 12:57:11 59° W 13:03:00 10° S
Cosmos 2278 Rocket 2.1 12:52:29 10° SSW 12:58:09 72° WNW 13:03:47 10° N
SAR-Lupe-1 4.1 12:54:46 10° S 12:58:18 53° WSW 13:01:48 10° NNW
CZ-4B R/B 3.9 12:52:48 10° NNE 12:58:19 59° ESE 13:03:55 10° S
Cosmos 1758 Rocket 4.1 12:54:43 10° NNW 12:58:39 33° W 13:02:40 10° SSW
Meteor 2-1 Rocket 4.4 12:56:59 10° SSW 13:02:25 51° W 13:07:54 10° NNW
ASTRO E2 3.1 13:00:53 27° W 13:02:38 47° NNW 13:06:27 10° NE
GPS 2-04 Rocket1 2.4 13:04:14 25° WSW 13:06:14 90° WSW 13:10:02 10° NE
SL-16 R/B 3.2 13:02:16 11° WNW 13:06:26 24° WSW 13:10:56 10° SSW
BREEZE-M DEB (TANK) 4.4 13:06:54 19° W 13:07:59 21° WNW 13:10:22 10° NNW
Meteor 2-10 Rocket 3.6 13:03:41 10° SSW 13:08:31 47° W 13:13:18 10° NNW
ASTEX 1 3.6 13:06:09 10° NNW 13:10:49 46° W 13:15:37 10° SSW
Shenzhou-11 Module 3.1 13:11:15 19° SSW 13:11:15 19° SSW 13:12:42 10° SSE
MOS 1-B 4.5 13:06:22 10° N 13:11:59 55° WNW 13:17:40 10° SSW
NOAA 6 4.0 13:08:46 10° N 13:13:49 62° WNW 13:18:57 10° SSW
NOSS 3-4 (A) 3.5 13:08:30 10° SW 13:14:44 56° WNW 13:20:32 10° N
NOSS 3-4 (C) 3.5 13:08:37 10° SW 13:14:52 57° WNW 13:20:40 10° N
Cosmos 1709 Rocket 4.0 13:10:01 10° N 13:16:08 88° W 13:22:17 10° S
Radarsat Rocket 4.2 13:09:29 10° NNE 13:16:20 87° WNW 13:22:28 10° SSW
DNEPR-1 R/B 4.3 13:14:16 10° WNW 13:17:48 28° WSW 13:21:32 10° S
COSMO-SKYMED 1 3.5 13:14:43 10° SSE 13:19:00 54° E 13:23:14 10° N
Nadezhda 1 Rocket 4.1 13:12:59 10° S 13:19:20 89° WNW 13:25:42 10° N
Okean O Rocket 1.6 13:16:26 10° N 13:20:54 81° W 13:25:22 10° SSW
H-2A R/B 3.8 13:20:34 10° NW 13:23:07 17° W 13:25:18 12° WSW
PSLV R/B 4.0 13:19:02 10° SSE 13:23:17 90° SSE 13:27:29 10° NNW
ADEOS Rocket 3.2 13:18:08 10° S 13:24:23 63° WSW 13:31:20 10° NNW
Cosmos 1953 Rocket 4.3 13:23:11 10° NW 13:27:07 31° W 13:31:04 10° SSW
CZ-3 R/B 2.7 13:12:38 10° W 13:31:22 50° SSW 13:36:51 10° SE
SPELTRA 4.4 13:30:07 10° NW 13:32:58 20° N 13:36:00 10° NE
H-2A R/B 3.7 13:30:53 10° NNW 13:34:11 27° W 13:37:30 10° SW
H-2A R/B 1.3 13:27:54 10° WNW 13:34:16 51° SSW 13:36:22 10° SE
ATLAS 2AS CENTAUR R/B 3.3 13:31:03 10° SW 13:37:47 44° WNW 13:45:01 10° N
Cosmos 1371 Rocket 4.2 13:36:17 10° S 13:41:29 81° ESE 13:46:39 10° NNE
GPS 2-17 Rocket1 4.0 13:40:50 10° WNW 13:45:23 49° NNE 13:50:03 10° E
Cosmos 1603 3.9 13:40:17 10° NW 13:45:43 49° WSW 13:51:10 10° S
